Regional Weather Roundup
Issued by NWS

Home | Current Version | Previous Version | Text Only | Print | Product List | Glossary On
Versions: 1 2 3 4 5 6 7 8 9 10 11 12 13 14 15 16 17 18 19 20 21 22 23 24 25 26 27 28 29 30 31 32 33 34 35 36 37 38 39 40 41 42 43 44 45 46 47 48 49 50
000
ASUS43 KMPX 040410
RWRMN
WEATHER ROUNDUP FOR MINNESOTA
NATIONAL WEATHER SERVICE TWIN CITIES/CHANHASSEN MN
1100 PM CDT THU SEP 03 2015


NOTE: "FAIR" INDICATES FEW OR NO CLOUDS BELOW 12,000 FEET WITH NO
SIGNIFICANT WEATHER AND/OR OBSTRUCTIONS TO VISIBILITY. N/A MEANS
CURRENT SKY AND/OR WEATHER CONDITIONS ARE NOT AVAILABLE.

MNZ060>063-068>070-040500-
   Twin Cities Metro

CITY           SKY/WX    TMP DP  RH WIND       PRES   REMARKS
TWIN CITIES    CLEAR     76  70  82 E12       29.90S
ST PAUL        CLEAR     74  69  85 SE8       29.91R
CRYSTAL        CLEAR     77  69  76 E7        29.89S
BLAINE         CLEAR     75  72  88 E8        29.91S
LAKEVILLE      CLEAR     70  70 100 E3        29.91S
EDEN PRAIRIE   CLEAR     77  71  82 E7        29.89R
SOUTH ST PAUL  CLEAR     75  69  80 E3        29.91S
LAKE ELMO      FAIR      72  70  94 E6        29.93S
$$
MNZ001>005-007-008-013>017-022>024-027-028-040500-
   Northwest Minnesota

CITY           SKY/WX    TMP DP  RH WIND       PRES   REMARKS
BEMIDJI        CLEAR     70  67  88 SE10      29.90S
HALLOCK        PTCLDY    82  72  69 S21       29.74S
ROSEAU         PTCLDY    73  66  78 S12       29.81S
WARROAD        CLEAR     73  66  78 S12       29.83S
THIEF RVR FALL MOCLDY    75  72  88 SE12      29.82S
CROOKSTON      CLOUDY    79  72  78 S14       29.80S
FOSSTON        PTCLDY    73  66  78 SE13      29.85S
DETROIT LAKES  CLEAR     73  70  88 SE13G18   29.88R
MOORHEAD       MOCLDY    79  73  83 SE9G17    29.81R
PARK RAPIDS    CLEAR     73  67  81 SE8       29.90S
MAHNOMEN       FAIR      74  70  86 SE10G17   29.85R
$$
MNZ006-009>011-018-025>026-040500-
   North Central Minnesota

CITY           SKY/WX    TMP DP  RH WIND       PRES   REMARKS
BAUDETTE       CLEAR     70  62  76 SE12      29.87S
FLAG ISLAND    CLEAR     73  64  73 S18       29.84R
INTL FALLS     CLEAR     64  60  87 SE8       29.92S
WASKISH        CLEAR     70  64  83 SE10      29.88F
BIG FORK       CLEAR     66  61  82 SE6       29.94S
LONGVILLE      CLEAR     66  63  88 SE5       29.93S
GRAND RAPIDS     N/A     63  57  82 SE6       29.96S
CRANE LAKE     FAIR      55  54  94 S1        29.98R
ORR            CLEAR     63  52  67 CALM      29.94S
COOK           CLEAR     61  52  72 E3        29.98S
WALKER         FAIR      70  67  88 SE6       29.91S
$$
MNZ012-019>021-037-040500-
   Northeast Minnesota

CITY           SKY/WX    TMP DP  RH WIND       PRES   REMARKS
DULUTH         CLEAR     58  52  80 E5        29.99S
ELY            CLEAR     57  48  72 SE3       30.00R
HIBBING        CLEAR     57  50  77 SE7       29.98S
EVELETH        CLEAR     57  50  77 E3        30.00S
DULUTH HARBOR  CLEAR     61  57  88 E9        29.98F
TWO HARBORS    CLEAR     61  54  77 NE5       29.98S
SILVER BAY     CLEAR     59  54  82 N3        29.99R
GRAND MARAIS     N/A     57  54  89 CALM      30.00S
G MARAIS ARPRT CLEAR     61  50  67 E6        30.05S
$$
MNZ029>031-032-039>041-046>048-054>057-064-040500-
   West Central Minnesota

CITY           SKY/WX    TMP DP  RH WIND       PRES   REMARKS
FERGUS FALLS   CLEAR     79  72  78 SE13      29.82S
WHEATON        PTCLDY    73  72  94 SE13      29.82F
MORRIS         CLEAR     77  73  88 SE13G18   29.83S
ALEXANDRIA     MOCLDY    74  71  91 SE13      29.89F
ELBOW LAKE     FAIR      76  73  90 SE14      29.84S
WADENA         MOCLDY    73  70  88 SE9       29.89S
GLENWOOD       CLEAR     73  72  94 E10       29.89F
APPLETON       CLEAR     79  73  83 E12       29.82F
BENSON         CLEAR     77  72  83 SE7       29.84F
ORTONVILLE     CLEAR     79  73  83 SE9       29.82S
MADISON        CLEAR     75  73  94 SE6       29.82F
WILLMAR        FAIR      77  75  94 E12       29.88S
$$
MNZ033>034-036-042>043-049>051-058-059-040500-
   Central Minnesota

CITY           SKY/WX    TMP DP  RH WIND       PRES   REMARKS
ST CLOUD       CLEAR     73  69  87 E6        29.90S
SAUK CENTRE    FAIR      74  70  89 E7        29.90S
PAYNESVILLE    PTCLDY    74  72  91 NE6       29.90S
AITKIN         CLEAR     63  57  82 CALM      29.94S
PINE RIVER     CLEAR     70  66  88 E8        29.95S
BRAINERD       CLEAR     69  66  90 VRB5      29.92S
STAPLES        MOCLDY    72  66  83 SE6       29.90F
LONG PRAIRIE   CLOUDY    73  70  88 E8        29.91S
LITTLE FALLS   CLOUDY    73  64  73 SE7       29.91S
LITCHFIELD     CLEAR     75  75 100 E9        29.89F
BUFFALO        CLEAR     73  69  87 E5        29.91S
MAPLE LAKE     CLEAR     74  72  93 E5        29.91S
$$
MNZ037-044-045-052-053-040500-
   East Central Minnesota

CITY           SKY/WX    TMP DP  RH WIND       PRES   REMARKS
PRINCETON      CLEAR     73  68  83 E6        29.92S
MORA           CLEAR     64  63  94 NE3       29.96R
CAMBRIDGE      MOCLDY    75  64  69 E5        29.91S
RUSH CITY      CLEAR     71  67  88 E5        29.94R
MOOSE LAKE     CLEAR     55  54  94 NE3       29.96R
HINCKLEY       FAIR      64  63  94 CALM      29.95S
CLOQUET        CLEAR     57  52  82 CALM      29.98S
MCGREGOR       CLEAR     59  55  88 E5        29.96S
$$
MNZ071>073-080-081-089-090-097-098-040500-
   Southwest Minnesota

CITY           SKY/WX    TMP DP  RH WIND       PRES   REMARKS
MONTEVIDEO     CLEAR     75  75 100 SE8       29.85F
GRANITE FALLS  CLEAR     76  74  95 E3        29.86S
CANBY          CLEAR     74  71  92 SE5       29.84F
MARSHALL       CLEAR     75  70  83 SE7       29.85F
REDWOOD FALLS  CLEAR     78  75  90 E7        29.85S
OLIVIA         CLEAR     73  72  94 E8        29.86S
PIPESTONE      MOCLDY    75  72  88 SE5       29.85F
WINDOM         CLEAR     75  72  88 SE5       29.87F
WORTHINGTON    CLEAR     73  70  88 SE7       29.87S
JACKSON        CLEAR     77  73  88 SE7       29.88F
TRACY          CLEAR     75  73  94 SE5       29.86S
SLAYTON        PTCLDY    73  72  99 CALM      29.87F
$$
MNZ065>067-074>077-082>085-091>093-040500-
   South Central Minnesota

CITY           SKY/WX    TMP DP  RH WIND       PRES   REMARKS
MANKATO        CLEAR     79  73  83 SE8       29.89R
NEW ULM        CLEAR     79  75  89 SE7       29.87S
ST JAMES       CLEAR     75  73  94 SE7       29.88S
FAIRMONT       CLEAR     75  66  73 S6        29.88S
GLENCOE        CLEAR     77  74  92 E7        29.89R
FARIBAULT      CLEAR     75  73  94 E6        29.91S
OWATONNA       CLEAR     75  72  88 SE5       29.92R
WASECA         PTCLDY    73  72  94 SE6       29.91S
ALBERT LEA     MOCLDY    77  73  88 SE5       29.91R
$$
MNZ078>079-086>088-094>096-040500-
   Southeast Minnesota

CITY           SKY/WX    TMP DP  RH WIND       PRES   REMARKS
ROCHESTER      CLEAR     75  73  93 SE8       29.94R FOG
RED WING       CLEAR     73  70  88 E7        29.91R
STANTON        CLEAR     77  71  82 SE8       29.90S
DODGE CENTER   PTCLDY    73  73 100 E5        29.93S FOG
WINONA         PTCLDY    77  68  73 SE7       29.93S
AUSTIN         PTCLDY    75  72  88 SE3       29.92S
PRESTON        CLEAR     76  73  90 E6        29.95R
$$
ABBREVIATIONS USED IN REMARKS
   TC - TEMPERATURES IN CELSIUS
  WCI - WIND CHILL INDEX
   HX - HEAT INDEX
  VSB - VISIBILITY
$$


USA.gov is the U.S. government's official web portal to all federal, state and local government web resources and services.